Terug naar catalogus

FENGYUN 1C DEB

ActiefPO
NORAD 30447·DEBRIS·🇨🇳 China

Gelanceerd May 10, 1999 vanaf Taiyuan Satellite Launch Center

Loading…

Volgende Passages (komende 24 uur)

TLE

VersSource: Space-Track

Epoch: Sep 13, 2026, 06:22 UTC

1 30447U 99025AFJ 26256.26545086  .00005200  00000-0  10369-2 0  9998
2 30447  98.9552 144.8015 0052332 276.9086 208.2849 14.61599590 20918

Volg FENGYUN 1C DEB in realtime met AllMySat

Download on the App Store